Regional Weather Roundup
Issued by NWS Glasgow, MT

Home | Current Version | Previous Version | Text Only | Print | Product List | Glossary On
Versions: 1 2 3 4 5 6 7 8 9 10 11 12 13 14 15 16 17 18 19 20 21 22 23 24 25 26 27 28
000
ASUS45 KGGW 240915
RWRGGW
HOURLY WEATHER ROUNDUP FOR NORTHEAST MONTANA
NATIONAL WEATHER SERVICE GLASGOW MONTANA
300 AM MDT THU APR 24 2014

NOTE: "FAIR" INDICATES FEW OR NO CLOUDS BELOW 12,000 FEET WITH NO
SIGNIFICANT WEATHER AND/OR OBSTRUCTIONS TO VISISBILITY.

NORTHEAST MONTANA


CITY           SKY/WX    TMP DP  RH WIND       PRES   REMARKS
GLASGOW        CLEAR     36  27  69 W8        29.69S
PLENTYWOOD       N/A     39  30  70 NW8         N/A
WOLF POINT     CLEAR     36  25  64 SW10      29.71R
JORDAN           N/A     34  24  67 W10       29.75R
WINNETT          N/A     38  26  62 SW6         N/A
SIDNEY         CLEAR     45  25  45 W12       29.72R
GLENDIVE       CLEAR     37  21  52 W10       29.75S
SCOBEY           N/A     37  22  54 SW14      29.65R

FORT PECK REPORTS


CITY           SKY/WX    TMP DP  RH WIND       PRES   REMARKS
FORT PECK        N/A     42  27  55 SW13G21     N/A
THE PINES        N/A     41  28  60 SW8         N/A

SOUTHEAST MONTANA


CITY           SKY/WX    TMP DP  RH WIND       PRES   REMARKS
BILLINGS       MOCLDY    42  24  49 W12       29.82R
MILES CITY     CLOUDY    46  24  42 SW13      29.78S
BAKER          CLEAR     36  23  59 SW13      29.78S
LIVINGSTON     CLOUDY    45  18  34 SW24G31   29.83R

CENTRAL MONTANA


CITY           SKY/WX    TMP DP  RH WIND       PRES   REMARKS
HAVRE          CLEAR     36  27  69 SW16      29.72R
LEWISTOWN      MOCLDY    34  26  72 W6        29.78R
GREAT FALLS    MOCLDY    36  30  79 SW14      29.78R
CUT BANK       PTCLDY    34  21  59 W18       29.73S
HELENA         CLOUDY    37  35  92 E5        29.86S
BUTTE          CLOUDY    36  21  54 VRB3      29.86F
BOZEMAN        CLOUDY    44  20  38 SW14      29.87S

WESTERN MONTANA


CITY           SKY/WX    TMP DP  RH WIND       PRES   REMARKS
MISSOULA       CLOUDY    37  36  96 SE3       29.89F
KALISPELL      NOT AVBL

NORTH DAKOTA


CITY           SKY/WX    TMP DP  RH WIND       PRES   REMARKS
WILLISTON      CLEAR     39  26  59 SW9       29.68R
DICKINSON      CLEAR     36  23  59 W12       29.72R
MINOT          CLEAR     39  36  89 S6        29.66S
BISMARCK       PTCLDY    35 N/A N/A W6        29.73F

SOUTHERN SASKATCHEWAN


CITY           SKY/WX    TMP DP  RH WIND       PRES   REMARKS
REGINA         LGT RAIN  41  41 100 SW9       29.59R
ESTEVAN        CLOUDY    37  37 100 S3        29.63S
SWIFT CURRENT  CLOUDY    39  36  87 W21G29    29.61S




USA.gov is the U.S. government's official web portal to all federal, state and local government web resources and services.